Regional Weather Roundup
Issued by NWS

Home | Current Version | Previous Version | Text Only | Print | Product List | Glossary On
Versions: 1 2 3 4 5 6 7 8 9 10 11 12 13 14 15 16 17 18 19 20 21 22 23 24 25 26 27 28 29 30 31 32 33 34 35 36 37 38 39 40 41 42 43 44 45 46 47 48 49 50
000
ASUS43 KMKX 032300
RWRWI

WISCONSIN REGIONAL WEATHER ROUNDUP
NATIONAL WEATHER SERVICE MILWAUKEE/SULLIVAN WI
600 PM CDT THU SEP 03 2015

NOTE: "FAIR" INDICATES FEW OR NO CLOUDS BELOW 12,000 FEET WITH NO
SIGNIFICANT WEATHER AND/OR OBSTRUCTIONS TO VISIBILITY.

WIZ001-002-006>008-014>016-023>028-040000-
NORTHWEST WISCONSIN

CITY           SKY/WX    TMP DP  RH WIND       PRES   REMARKS
SUPERIOR ARPT  CLOUDY    59  59  99 NE6       29.96F FOG
ASHLAND        SUNNY     66  63  90 N8        29.97F
HAYWARD        SUNNY     81  65  58 S3        29.94F HX  83
SIREN          SUNNY     82  66  58 SE6       29.92S HX  84
CUMBERLAND     SUNNY     79  64  61 E7        29.93F HX  81
RICE LAKE      SUNNY     80  66  62 E8        29.94S HX  82
CHETEK         SUNNY     81  69  66 SE7       29.93S HX  83
LADYSMITH      MOSUNNY   82  65  56 E6        29.96F HX  84
EAU CLAIRE     SUNNY     81  67  62 E10       29.91S HX  83
MENOMONIE      SUNNY     82  68  62 E8        29.91S HX  85
NEW RICHMOND   SUNNY     81  67  62 E8        29.91S HX  83
OSCEOLA        SUNNY     82  68  62 E8        29.92S HX  84
$$

WIZ003>005-009-010-017-018-040000-
NORTH CENTRAL WISCONSIN

CITY           SKY/WX    TMP DP  RH WIND       PRES   REMARKS
MANITOWISH WTR SUNNY     78  65  63 E3        29.98S HX  80
ARBOR VITAE    SUNNY     80  66  62 SE8       29.98S HX  82
WOODRUFF       SUNNY     80  66  62 SE8       29.98S HX  82
RHINELANDER    SUNNY     76  63  64 SE8       29.99F
EAGLE RIVER    SUNNY     77  59  54 E7        29.99S
LAND O LAKES   SUNNY     78  62  57 SE9       30.00S
PHILLIPS       SUNNY     78  65  63 NE7       29.96S HX  80
TOMAHAWK       MOSUNNY   78  65  64 E6        29.98S HX  80
MEDFORD        MOSUNNY   75  66  74 SE3       29.97F
MERRILL        MOSUNNY   78  67  66 E7        29.97F HX  80
$$

WIZ029-030-035-036-043>047-040000-
CENTRAL WISCONSIN

CITY           SKY/WX    TMP DP  RH WIND       PRES   REMARKS
WAUSAU         PTSUNNY   77  66  68 E9        29.95S
MOSINEE        PTSUNNY   73  68  83 E7        29.98S
MARSHFIELD     SUNNY     77  63  61 E9        29.96S
STEVENS POINT  PTSUNNY   73  65  74 E8        29.97S
WAUPACA        CLOUDY    75  69  80 CALM      29.96S
WAUTOMA        NOT AVBL
WISC RAPIDS    MOSUNNY   78  64  61 E9        29.96R HX  80
CAMP DOUGLAS   NOT AVBL
$$

WIZ011>013-019>022-031-037>040-048>050-040000-
NORTHEAST WISCONSIN

CITY           SKY/WX    TMP DP  RH WIND       PRES   REMARKS
ANTIGO         MOSUNNY   74  65  71 NE5       29.99F
SHAWANO        NOT AVBL
OCONTO         SUNNY     75  68  79 NE3       29.94R
STURGEON BAY   SUNNY     72  63  73 N12       29.96S
GREEN BAY      SUNNY     75  67  76 NE9       29.94S
MANITOWOC      NOT AVBL
APPLETON       PTSUNNY   73  63  68 NW7       29.94S
CLINTONVILLE   MOSUNNY   77  63  61 N6        29.95S
OSHKOSH        CLOUDY    74  66  76 N6        29.94S
$$

WIZ032>034-041-042-053>061-040000-
SOUTHWEST WISCONSIN

CITY           SKY/WX    TMP DP  RH WIND       PRES   REMARKS
LA CROSSE      SUNNY     86  72  62 E8        29.87S HX  92
SPARTA         SUNNY     85  68  56 E7        29.91R HX  88
VIROQUA          N/A     84  75  75 E6        29.92R HX  91
BOSCOBEL       PTSUNNY   89  73  59 CALM      29.87S HX  97
PRAIRIE DU CHI SUNNY     89  69  52 CALM      29.86S HX  94
PLATTEVILLE    SUNNY     88  72  59 CALM      29.90S HX  95
$$

WIZ056-057-062-063-064-067-068-040000-
SOUTH CENTRAL WISCONSIN

CITY           SKY/WX    TMP DP  RH WIND       PRES   REMARKS
REEDSBURG      SUNNY     84  72  66 N3        29.90S HX  90
BARABOO/DELLS  SUNNY     83  67  58 NE6       29.91S HX  86
LONE ROCK      NOT AVBL
MINERAL POINT  SUNNY     88  72  58 CALM      29.91S HX  94
MADISON        PTSUNNY   82  71  69 MISG      29.91R HX  86
MIDDLETON      SUNNY     85  71  64 NE9       29.91S HX  90
WATERTOWN      SUNNY     79  72  79 N9        29.91R HX  82
MONROE         SUNNY     88  72  58 SW6       29.90S HX  94
JANESVILLE     PTSUNNY   84  72  65 CALM      29.89R HX  89
$$

WIZ051-052-058>065-066-070>072-040000-
SOUTHEAST WISCONSIN

CITY           SKY/WX    TMP DP  RH WIND       PRES   REMARKS
MILWAUKEE      MOSUNNY   69  64  84 NE9       29.92R
WAUKESHA       PTSUNNY   77  68  73 NE9       29.93R
MILWAUKEE/TIMM NOT AVBL
RACINE         SUNNY     73  65  75 NE13      29.93R
BURLINGTON     MOSUNNY   82  71  69 NE3       29.89S HX  85
KENOSHA        MOSUNNY   75  68  78 NE9       29.91R
FOND DU LAC    SUNNY     75  67  76 NE13      29.94S
SHEBOYGAN      PTSUNNY   70  66  87 NE10      29.93R
WEST BEND      MOSUNNY   75  64  69 N8        29.93R
JUNEAU         MOSUNNY   76  67  73 N9        29.93F
$$

LSZ147-162-040000-
LAKE SUPERIOR

STATION/POSITION TIME  TEMP    WIND        PRES    WAVE
                       AIR SEA DIR/SP/G            HT/PER
                 (UTC) (F)     (DEG/KT/KT) (MB)    (FT/S)
W MID LAKE BUOY  2150   59 57   30/  8/  8 1015.2F   0
DEVILS ISLAND    2200   59      70/  6/  7 1015.3F
PORT WING        2240   58      30/ 15/ 16 1014.2F
SAXON HARBOR     2200   62      40/  5/  8 1014.6F
$$

LMZ867-665-643>646-040000-
LAKE MICHIGAN

STATION/POSITION TIME  TEMP    WIND        PRES    WAVE
                       AIR SEA DIR/SP/G            HT/PER
                 (UTC) (F)     (DEG/KT/KT) (MB)    (FT/S)
CHAMBERS ISLAND  2200   68      20/  6/  7 1013.9R
S GREEN BAY BUOY 2200   68 67   50/  8/ 10 1015.1R
N MID LAKE BUOY  2150   68 67  350/  6/  6 1013.1S   1/ 4
NORTHPORT PIER   2200   71     340/  4/  7 1013.5F
SISTER BAY       2211   75      10/  9/ 11   N/A
ALGOMA LAKESHORE 2214           60/ 13/ 16   N/A
KEWAUNEE LAKESHO 2200   66      30/  4/  7 1012.6F
SHEBOYGAN LAKESH 2200   60      40/ 10/ 11 1013.4R
PORT WASHINGTON  2200   62      40/  8/ 10 1013.5R
ATWATER BUOY     2200   61     300/  4/  4 1014.5R
MILWAUKEE LAKESH 2210   66      30/  6/  7   N/A
S MID LAKE BUOY  2150   71 72   10/ 14/ 16 1011.8R
KENOSHA   LAKESH 2200           10/ 12/ 14 1012.2R
$$

TC  - TEMPERATURE IN CELSIUS
VSB - VISIBILITY IN STATUTE MILES
WCI - WIND CHILL INDEX
HX  - HEAT INDEX




USA.gov is the U.S. government's official web portal to all federal, state and local government web resources and services.